Location: Observatory
(52.1446°N, 0.4624°W)
Time: 04:51:34
(UTC+00:00)

ISS - Pass Details

Date: 03 December 2019
Orbit: 411 x 421 km, 51.6° (Epoch: 15 December)

Event Time Altitude Azimuth Distance (km) Brightness Sun altitude
Rises 18:10:22 0° 278° (W) 2,360 1.4 -20.1°
Reaches altitude 10° 18:12:28 10° 276° (W) 1,498 0.1 -20.4°
Enters shadow 18:15:42 69° 208° (SSW) 452 -3.6 -20.9°
